2017-008DB

Last updated on Fri Mar 10 2017 00:15:03 GMT+0000 (Coordinated Universal Time)

1 42045U 17008DB 17068.69479265 .00001549 00000-0 71600-4 0 9998 2 42045 97.5073 130.2837 0008871 174.2199 185.9124 15.21678640 2584

Satellite not in orbit

2017-008DB